Meteo pe oră la Abay

Astăzi, 26 Iulie, Luni

Timp Temperatura Precipitaţii Vânt Presiune Umiditate
00:00 +21°C° 0.1 mm 3 m/s 710 mmHg 66%
01:00 +20°C° 0.1 mm 3 m/s 710 mmHg 72%
02:00 +20°C° 0.1 mm 3 m/s 710 mmHg 77%
03:00 +20°C° 0 mm 4 m/s 710 mmHg 79%
04:00 +19°C° 0 mm 5 m/s 711 mmHg 81%
05:00 +19°C° 0 mm 6 m/s 711 mmHg 83%
06:00 +19°C° 0 mm 6 m/s 712 mmHg 73%
07:00 +20°C° 0 mm 6 m/s 712 mmHg 63%
08:00 +21°C° 0 mm 6 m/s 713 mmHg 53%
09:00 +22°C° 0 mm 6 m/s 713 mmHg 47%
10:00 +23°C° 0 mm 6 m/s 713 mmHg 41%
11:00 +26°C° 0 mm 6 m/s 713 mmHg 35%
12:00 +26°C° 0 mm 7 m/s 713 mmHg 32%
13:00 +27°C° 0 mm 7 m/s 713 mmHg 30%
14:00 +28°C° 0 mm 7 m/s 713 mmHg 28%
15:00 +27°C° 0 mm 7 m/s 713 mmHg 29%
16:00 +27°C° 0 mm 6 m/s 713 mmHg 30%
17:00 +27°C° 0 mm 6 m/s 713 mmHg 31%
18:00 +24°C° 0 mm 6 m/s 713 mmHg 35%
19:00 +23°C° 0 mm 6 m/s 713 mmHg 39%
20:00 +21°C° 0 mm 6 m/s 713 mmHg 43%
21:00 +21°C° 0 mm 5 m/s 713 mmHg 42%
22:00 +21°C° 0 mm 4 m/s 713 mmHg 42%
23:00 +21°C° 0 mm 3 m/s 713 mmHg 42%

Mâine, 27 Iulie, Marţi

Timp Temperatura Precipitaţii Vânt Presiune Umiditate
00:00 +20°C° 0 mm 4 m/s 713 mmHg 41%
01:00 +20°C° 0 mm 4 m/s 713 mmHg 41%
02:00 +19°C° 0 mm 5 m/s 713 mmHg 40%
03:00 +18°C° 0 mm 4 m/s 713 mmHg 42%
04:00 +17°C° 0 mm 4 m/s 714 mmHg 43%
05:00 +15°C° 0 mm 4 m/s 714 mmHg 45%
06:00 +17°C° 0 mm 4 m/s 714 mmHg 43%
07:00 +18°C° 0 mm 4 m/s 714 mmHg 41%
08:00 +19°C° 0 mm 4 m/s 715 mmHg 38%
09:00 +20°C° 0 mm 4 m/s 715 mmHg 36%
10:00 +21°C° 0 mm 4 m/s 714 mmHg 34%
11:00 +22°C° 0 mm 3 m/s 714 mmHg 32%
12:00 +23°C° 0 mm 4 m/s 714 mmHg 30%
13:00 +25°C° 0 mm 4 m/s 714 mmHg 28%
14:00 +25°C° 0 mm 5 m/s 714 mmHg 27%
15:00 +25°C° 0 mm 5 m/s 713 mmHg 27%
16:00 +25°C° 0 mm 5 m/s 713 mmHg 27%
17:00 +23°C° 0 mm 5 m/s 713 mmHg 27%
18:00 +22°C° 0 mm 5 m/s 713 mmHg 30%
19:00 +20°C° 0 mm 5 m/s 713 mmHg 33%
20:00 +19°C° 0 mm 5 m/s 713 mmHg 37%
21:00 +18°C° 0 mm 4 m/s 713 mmHg 40%
22:00 +17°C° 0 mm 4 m/s 713 mmHg 43%
23:00 +16°C° 0 mm 3 m/s 713 mmHg 46%

Poimâine, 28 Iulie, Miercuri

Timp Temperatura Precipitaţii Vânt Presiune Umiditate
00:00 +14°C° 0 mm 3 m/s 713 mmHg 48%
01:00 +13°C° 0 mm 3 m/s 713 mmHg 50%
02:00 +13°C° 0 mm 2 m/s 713 mmHg 53%
03:00 +13°C° 0 mm 2 m/s 713 mmHg 54%
04:00 +13°C° 0 mm 2 m/s 713 mmHg 55%
05:00 +12°C° 0 mm 2 m/s 713 mmHg 57%
06:00 +15°C° 0 mm 2 m/s 713 mmHg 51%
07:00 +17°C° 0 mm 2 m/s 713 mmHg 45%
08:00 +19°C° 0 mm 2 m/s 713 mmHg 39%
09:00 +20°C° 0 mm 2 m/s 713 mmHg 35%
10:00 +21°C° 0 mm 2 m/s 713 mmHg 32%
11:00 +23°C° 0 mm 2 m/s 713 mmHg 28%
12:00 +24°C° 0 mm 2 m/s 713 mmHg 26%
13:00 +25°C° 0 mm 2 m/s 713 mmHg 25%
14:00 +26°C° 0 mm 2 m/s 713 mmHg 23%
15:00 +26°C° 0 mm 2 m/s 712 mmHg 23%
16:00 +26°C° 0 mm 3 m/s 712 mmHg 23%
17:00 +26°C° 0 mm 3 m/s 712 mmHg 23%
18:00 +24°C° 0 mm 3 m/s 712 mmHg 26%
19:00 +22°C° 0 mm 3 m/s 712 mmHg 30%
20:00 +20°C° 0 mm 4 m/s 712 mmHg 33%
21:00 +19°C° 0 mm 3 m/s 712 mmHg 36%
22:00 +18°C° 0 mm 3 m/s 712 mmHg 38%
23:00 +17°C° 0 mm 3 m/s 712 mmHg 41%

29 Iulie, Joi

Timp Temperatura Precipitaţii Vânt Presiune Umiditate
00:00 +16°C° 0 mm 3 m/s 712 mmHg 42%
01:00 +16°C° 0 mm 3 m/s 712 mmHg 43%
02:00 +15°C° 0 mm 2 m/s 712 mmHg 44%
03:00 +15°C° 0 mm 2 m/s 712 mmHg 44%
04:00 +15°C° 0 mm 2 m/s 711 mmHg 45%
05:00 +15°C° 0 mm 2 m/s 711 mmHg 45%
06:00 +17°C° 0 mm 2 m/s 712 mmHg 41%
07:00 +19°C° 0 mm 2 m/s 712 mmHg 37%
08:00 +21°C° 0 mm 3 m/s 712 mmHg 32%
09:00 +22°C° 0 mm 3 m/s 712 mmHg 30%
10:00 +24°C° 0 mm 3 m/s 712 mmHg 27%
11:00 +25°C° 0 mm 3 m/s 712 mmHg 25%
12:00 +26°C° 0 mm 3 m/s 712 mmHg 24%
13:00 +26°C° 0 mm 3 m/s 712 mmHg 23%
14:00 +27°C° 0 mm 3 m/s 712 mmHg 23%
15:00 +27°C° 0 mm 4 m/s 712 mmHg 23%
16:00 +27°C° 0 mm 4 m/s 712 mmHg 23%
17:00 +27°C° 0 mm 4 m/s 712 mmHg 24%
18:00 +25°C° 0 mm 4 m/s 712 mmHg 30%
19:00 +22°C° 0 mm 5 m/s 712 mmHg 36%
20:00 +20°C° 0 mm 5 m/s 713 mmHg 42%
21:00 +19°C° 0 mm 4 m/s 713 mmHg 48%
22:00 +18°C° 0 mm 4 m/s 713 mmHg 55%
23:00 +16°C° 0 mm 3 m/s 713 mmHg 61%

30 Iulie, Vineri

Timp Temperatura Precipitaţii Vânt Presiune Umiditate
00:00 +16°C° 0 mm 3 m/s 713 mmHg 63%
01:00 +14°C° 0 mm 3 m/s 713 mmHg 65%
02:00 +14°C° 0 mm 3 m/s 713 mmHg 68%
03:00 +13°C° 0 mm 3 m/s 713 mmHg 69%
04:00 +14°C° 0 mm 2 m/s 713 mmHg 70%
05:00 +14°C° 0 mm 2 m/s 713 mmHg 71%
06:00 +16°C° 0 mm 2 m/s 714 mmHg 62%
07:00 +19°C° 0 mm 3 m/s 714 mmHg 53%
08:00 +21°C° 0 mm 3 m/s 715 mmHg 45%
09:00 +24°C° 0 mm 2 m/s 715 mmHg 39%
10:00 +25°C° 0 mm 1 m/s 715 mmHg 33%
11:00 +25°C° 0 mm 0 m/s 715 mmHg 27%
12:00 +28°C° 0 mm 1 m/s 714 mmHg 24%
13:00 +29°C° 0 mm 2 m/s 714 mmHg 22%
14:00 +29°C° 0 mm 3 m/s 714 mmHg 19%
15:00 +29°C° 0 mm 3 m/s 714 mmHg 19%
16:00 +29°C° 0 mm 4 m/s 714 mmHg 18%
17:00 +29°C° 0 mm 4 m/s 713 mmHg 18%
18:00 +27°C° 0 mm 4 m/s 714 mmHg 22%
19:00 +25°C° 0 mm 4 m/s 714 mmHg 26%
20:00 +22°C° 0 mm 4 m/s 714 mmHg 30%
21:00 +21°C° 0 mm 3 m/s 714 mmHg 32%
22:00 +20°C° 0 mm 3 m/s 714 mmHg 35%
23:00 +19°C° 0 mm 2 m/s 714 mmHg 38%

31 Iulie, Sâmbătă

Timp Temperatura Precipitaţii Vânt Presiune Umiditate
00:00 +18°C° 0 mm 2 m/s 714 mmHg 40%
01:00 +18°C° 0 mm 2 m/s 713 mmHg 41%
02:00 +18°C° 0 mm 1 m/s 713 mmHg 43%
03:00 +18°C° 0 mm 1 m/s 713 mmHg 43%
04:00 +18°C° 0 mm 1 m/s 713 mmHg 44%
05:00 +18°C° 0 mm 1 m/s 713 mmHg 44%
06:00 +20°C° 0 mm 2 m/s 714 mmHg 38%
07:00 +23°C° 0 mm 2 m/s 714 mmHg 32%
08:00 +26°C° 0 mm 2 m/s 715 mmHg 26%
09:00 +27°C° 0 mm 3 m/s 715 mmHg 24%
10:00 +28°C° 0 mm 3 m/s 715 mmHg 22%
11:00 +29°C° 0 mm 3 m/s 714 mmHg 21%
12:00 +30°C° 0 mm 3 m/s 714 mmHg 20%
13:00 +31°C° 0 mm 3 m/s 714 mmHg 20%
14:00 +33°C° 0 mm 3 m/s 714 mmHg 20%
15:00 +33°C° 0 mm 3 m/s 713 mmHg 20%
16:00 +33°C° 0 mm 3 m/s 713 mmHg 20%
17:00 +33°C° 0 mm 4 m/s 713 mmHg 19%
18:00 +30°C° 0 mm 3 m/s 713 mmHg 23%
19:00 +27°C° 0 mm 3 m/s 713 mmHg 27%
20:00 +25°C° 0 mm 2 m/s 713 mmHg 32%
21:00 +25°C° 0 mm 2 m/s 713 mmHg 32%
22:00 +24°C° 0 mm 2 m/s 712 mmHg 32%
23:00 +24°C° 0 mm 2 m/s 712 mmHg 32%
Arată mai mult

Formular de consimțământ

Meteoprog și furnizorii noștri de servicii pot stoca și accesa date personale, precum cookies, identificatori de dispozitiv sau alte tehnologii similare pe dispozitivul dumneavoastră și procesa astfel de date pentru a personaliza conținutul și reclamele, dar și pentru a oferi caracteristici de social media și pentru a analiza traficul.

  • Stocarea și/sau accesarea informațiilor pe dispozitivul dumneavoastră

    Cookies, identificatori de dispozitiv sau alte informații pot fi stocate sau accesate pe dispozitiv în scopurile indicate mai sus.

  • Reclame și conținut personalizat, evaluarea reclamelor și a conținutului, informații despre audiențe și dezvoltarea produselor

    Reclamele și conținutul pot fi personalizate pe baza unui profil. Pot fi adăugate date suplimentare pentru a personaliza mai bine reclamele și conținutul. Performanța reclamelor și conținutului poate fi măsurată. Pot fi obținute informații despre utilizatorii care au văzut reclamele și conținutul. Aceste date pot fi utilizate pentru a dezvolta sau îmbunătăți experiența utilizatorilor, sistemele și software-ul.

Dând clic pe ‘Sunt de acord’, permiteți utilizarea cookie-urilor menționate, a identificatorilor de dispozitiv, balizelor web sau altor tehnologii similare. Setările pot fi modificate din browser-ul dispozitivului dumneavoastră.

În anumite scopuri, interesele legitime pot prima asupra consimțământului. Puteți citi mai multe informații în acest sens în Politica privind Confidențialitatea Datelor și Cookie.